Temperature
22 23 24 25 25 26 25 22 22 23 23 23 23 23 23 24 24 24 24 24 23 24 24 23 23 23 23 23 22 22 22 21 21 21 20 20 20 19 19 19 18 18 18 17
22 24 24 25 25 26 25 25 24 24 23 23 23 24 23 23 23 23 23 23 23 24 23 23 23 23 23 23 22 22 22 21 21 21 20 20 19 19 19 19 18 18 17 17
20 22 23 23 24 25 24 24 24 23 23 22 22 22 22 22 23 23 23 23 23 23 24 23 23 23 23 23 22 22 21 21 21 20 20 20 19 19 19 18 18 18 17 17
18 21 22 22 23 24 24 24 23 23 22 22 22 22 23 23 23 23 23 23 23 23 23 23 23 23 22 22 22 21 21 21 21 20 20 19 19 19 18 18 18 18 17 17
17 19 20 22 23 24 23 22 23 22 22 22 22 22 21 22 23 23 23 23 23 23 23 23 23 22 22 22 21 21 21 21 20 20 20 19 19 19 18 18 17 17 17 17
17 19 20 21 23 24 23 21 21 22 21 21 21 20 20 22 22 22 22 23 23 22 23 22 22 22 22 21 21 21 21 21 20 20 19 19 19 18 18 18 17 17 17 17
17 18 19 20 22 23 21 20 21 22 22 21 20 21 22 22 22 22 22 22 22 22 22 22 22 21 21 21 21 21 21 20 20 19 19 19 18 18 18 17 17 17 17 16
16 17 18 20 21 20 19 20 21 21 22 21 21 22 22 22 22 22 21 21 21 21 21 21 21 21 21 21 20 20 20 19 19 19 18 18 18 17 17 17 16 16 16 16
16 17 18 20 20 20 20 20 20 21 21 21 21 21 21 21 21 21 21 21 21 21 20 20 20 20 20 20 19 19 19 19 18 18 18 18 17 17 17 16 16 16 16 16
16 17 18 19 20 20 20 20 21 21 21 21 21 21 21 21 20 20 20 20 20 20 20 19 19 19 19 19 19 18 18 18 18 17 17 17 17 16 16 16 16 16 16 16
15 16 17 18 19 19 20 20 20 20 20 20 20 20 20 20 20 20 20 20 19 19 19 19 19 18 18 18 18 18 17 17 17 17 17 16 16 16 16 16 16 16 16 15
14 16 15 17 18 19 19 19 19 19 19 20 20 20 20 19 19 19 19 19 19 19 18 18 18 18 18 18 17 17 17 17 17 17 16 16 16 15 15 15 15 15 15 15
17 17 18 18 18 18 18 18 19 19 19 19 19 19 19 19 19 19 18 18 18 18 18 18 17 17 17 17 17 17 17 16 16 16 16 16 15 15 15 15 14 14 14 14
17 17 17 17 18 18 18 18 18 18 19 19 19 19 19 18 18 18 18 18 18 17 17 17 17 17 17 16 16 16 16 16 16 16 15 15 15 15 15 15 14 14 14 14
17 17 17 17 17 17 18 18 18 18 18 18 18 18 18 18 17 17 17 17 17 17 17 16 16 16 16 16 16 16 16 15 15 15 15 15 15 14 14 14 14 14 14 13
16 16 16 16 16 17 17 17 17 17 17 17 17 17 17 17 17 16 16 16 16 16 16 16 16 16 16 16 16 15 15 15 15 15 14 14 14 14 14 14 14 14 14 13
15 15 15 16 16 16 16 17 17 16 17 17 17 17 16 16 16 16 16 16 16 16 16 15 15 15 15 15 15 15 15 14 14 14 14 14 14 14 14 14 13 14 14 14
15 15 16 15 15 15 16 16 16 16 16 16 16 16 16 16 16 15 15 15 15 15 15 15 15 15 15 15 15 14 14 14 14 14 14 14 14 13 13 13 13 13 13 13
15 15 15 15 15 15 15 15 16 16 16 16 15 15 15 15 15 15 15 15 15 15 14 14 14 14 14 14 14 14 14 14 14 13 13 13 13 13 13 13 13 13 13 13
15 15 15 15 15 15 15 15 15 15 15 15 15 15 15 15 14 14 14 14 14 14 14 14 14 14 14 14 14 14 14 13 13 13 13 13 13 13 13 13 13 13 13 13
14 14 14 15 15 15 15 15 15 15 15 15 15 14 14 14 14 14 14 14 14 14 14 14 14 14 14 14 13 13 13 13 13 13 13 13 13 12 12 13 13 13 13 13
14 14 14 14 14 14 14 14 14 14 14 14 14 14 14 14 14 14 14 14 14 14 13 13 13 13 13 13 13 13 13 13 13 13 12 12 12 12 12 12 12 12 12 12
13 14 14 14 14 14 14 14 14 14 14 14 14 14 14 14 14 13 13 13 13 13 13 13 13 13 13 13 13 13 13 13 13 12 12 12 12 12 12 12 12 12 12 12
13 13 13 14 14 14 14 14 14 14 14 14 14 14 14 13 13 13 13 13 13 13 13 13 13 13 13 13 13 13 13 12 12 12 12 12 12 12 12 12 12 12 12 12
13 13 13 13 13 13 13 13 13 13 13 13 13 13 13 13 13 13 13 13 13 13 13 13 13 13 13 13 12 12 12 12 12 12 12 12 12 12 12 11 11 11 11 11
13 13 13 13 13 13 13 13 13 13 13 13 13 13 13 13 13 13 13 13 12 12 12 12 12 13 12 12 12 12 12 12 12 12 12 12 11 11 11 11 11 11 11 11
12 12 12 13 12 12 12 12 12 12 12 12 12 13 13 13 13 13 12 12 12 12 12 12 12 12 12 12 12 12 12 12 12 12 11 11 11 11 11 11 11 11 11 10
Wind_Speed
6 6 4 5 6 4 4 8 8 8 8 10 10 10 9 8 7 7 7 7 7 8 8 8 9 9 10 10 10 10 10 9 9 8 7 7 6 6 5 5 5 5 4 4
3 3 3 4 6 5 3 4 6 6 5 7 6 5 7 9 10 10 8 8 8 8 8 8 9 9 9 9 10 10 10 9 8 7 7 7 7 6 6 5 5 5 5 4
3 4 3 4 6 3 2 2 6 6 6 5 7 8 8 9 9 10 9 8 8 8 8 9 9 9 10 9 9 9 9 9 8 8 8 7 8 7 6 5 5 5 5 5
1 2 4 8 4 2 3 1 2 4 5 8 9 8 7 7 8 8 7 7 7 7 7 7 7 7 8 8 9 9 8 8 8 8 8 7 7 7 6 5 5 5 5 5
3 2 4 7 4 1 2 2 1 5 7 7 9 9 4 2 5 7 7 7 6 6 6 7 7 8 9 9 8 8 8 8 9 9 9 8 8 7 5 5 5 4 5 5
4 3 5 7 6 3 3 2 3 4 8 7 7 5 3 3 5 5 6 6 6 5 6 6 6 8 9 9 8 9 8 8 7 8 9 9 8 7 5 5 5 4 4 4
4 4 6 6 6 3 3 5 3 4 8 7 4 6 5 5 5 6 5 7 8 7 5 5 6 8 8 8 8 7 7 7 6 6 7 8 7 6 6 6 5 4 4 3
4 4 7 5 3 2 5 2 1 3 6 6 5 5 5 5 5 6 6 7 7 7 5 4 5 7 7 6 6 6 7 7 6 6 6 6 7 6 6 7 6 5 4 2
6 6 5 2 2 2 3 3 2 3 4 7 7 5 4 4 5 6 6 7 6 6 5 3 4 6 6 4 5 6 6 6 5 5 5 6 7 7 6 6 5 5 4 4
1 1 1 2 3 3 4 4 3 3 4 6 6 6 5 5 5 6 6 6 5 6 6 3 3 4 5 5 6 7 6 5 5 5 4 4 5 5 6 6 6 5 5 4
1 1 4 4 4 3 4 4 5 5 3 4 7 6 5 5 5 6 5 5 6 6 6 5 4 4 4 5 7 7 6 5 5 4 4 4 3 3 5 5 6 7 6 5
5 6 4 3 2 2 2 2 2 3 3 3 5 5 4 5 5 5 5 5 5 5 5 5 4 4 4 5 7 7 5 5 4 4 3 3 4 2 1 2 4 6 7 7
5 4 4 2 1 1 1 1 2 2 4 3 2 4 5 4 4 5 5 5 6 6 6 6 5 3 3 4 6 6 5 5 4 4 4 4 4 5 3 1 1 2 5 7
2 2 1 0 1 2 2 2 2 2 4 4 3 4 4 4 4 5 5 4 5 6 6 5 5 4 3 4 6 5 5 4 4 4 4 4 4 4 4 4 3 2 3 5
2 2 3 1 1 2 2 1 2 2 3 3 4 4 5 5 4 3 4 4 5 5 5 4 4 3 3 4 5 5 4 3 3 3 3 4 4 4 4 4 4 3 2 1
2 1 2 2 1 1 1 1 3 2 3 4 4 4 4 5 4 3 3 4 5 5 4 4 3 3 3 4 4 4 3 5 4 3 3 3 4 4 4 5 5 5 4 3
2 1 2 1 1 1 1 1 4 4 4 5 4 4 4 5 5 3 2 3 3 3 4 4 3 3 4 4 4 3 3 4 5 4 4 4 4 4 5 5 5 5 5 6
3 4 3 3 2 1 1 1 3 4 5 5 4 4 5 5 5 4 3 3 3 2 1 2 3 2 3 3 3 3 3 3 4 4 4 4 4 4 4 5 6 6 4 5
2 1 1 1 2 3 3 4 5 4 5 5 5 4 4 4 4 3 3 3 3 2 2 2 3 3 2 3 3 2 3 3 3 3 3 4 4 3 4 5 5 5 5 5
2 2 2 2 3 4 4 5 5 5 4 5 5 5 4 3 3 3 3 2 2 3 3 3 2 2 2 2 2 2 3 3 3 3 3 3 3 3 3 4 4 4 5 5
3 3 2 2 3 4 4 4 5 4 4 5 5 4 3 2 2 3 2 1 2 1 2 2 2 2 2 2 2 2 2 3 3 3 3 4 3 3 3 4 4 4 4 5
3 3 2 2 4 4 4 4 4 4 4 4 4 3 3 2 1 1 1 2 2 2 1 1 1 2 2 2 2 2 2 2 2 2 3 3 3 4 4 4 4 4 4 4
2 2 2 3 4 4 3 3 3 3 3 3 3 2 2 1 1 1 1 2 1 1 1 1 2 2 2 2 2 2 2 2 3 3 3 3 3 4 4 4 4 4 4 4
2 2 2 2 3 4 3 2 2 2 2 1 1 1 2 1 1 1 2 2 2 2 1 1 2 2 2 1 2 2 2 2 3 3 3 3 3 3 3 3 3 3 3 4
2 2 2 3 3 2 2 2 2 2 2 1 0 0 1 1 2 2 2 2 2 2 1 1 2 3 2 2 2 2 2 2 2 2 2 2 3 2 2 2 2 3 3 3
2 1 1 1 2 1 1 2 1 1 1 0 1 1 1 1 1 1 1 1 2 2 2 2 2 2 2 2 2 2 2 2 1 2 2 2 2 2 2 2 2 2 2 3
2 2 1 1 1 1 1 1 1 1 1 1 1 2 1 0 0 1 1 1 1 0 1 1 1 1 1 1 1 1 1 1 1 1 1 1 1 1 1 2 1 2 2 2
Wind_Direction
221 234 237 259 267 252 200 184 181 205 194 207 200 184 172 151 136 127 132 142 157 163 163 167 166 168 170 171 169 168 166 171 177 174 167 162 159 159 155 150 149 145 133 125
298 292 300 298 286 269 229 189 176 165 209 219 187 151 146 149 152 150 152 163 162 162 164 166 170 170 167 168 170 166 168 175 172 164 162 162 160 156 152 150 147 138 139 139
260 298 11 284 258 232 217 195 160 183 213 159 133 146 160 159 156 155 165 168 165 167 173 174 174 169 166 166 160 160 167 167 163 162 162 164 162 155 158 160 150 147 150 144
160 51 223 245 274 209 144 73 164 162 162 158 151 146 139 143 148 149 157 161 163 167 164 165 164 161 157 153 158 163 167 168 165 163 163 160 156 161 164 153 152 160 163 156
126 176 270 291 308 328 129 346 1 136 130 124 115 86 63 109 141 154 155 155 157 159 155 156 159 157 150 154 162 166 169 171 172 168 164 163 165 167 163 155 156 165 167 158
135 161 222 251 293 305 99 341 329 136 139 137 118 129 203 181 131 128 131 133 132 132 126 140 156 153 153 159 165 178 179 173 169 168 169 171 171 167 160 155 156 149 147 156
170 201 250 265 296 16 140 224 276 125 141 143 151 177 177 146 131 131 127 125 126 127 129 147 154 151 154 163 178 181 165 154 155 163 168 169 163 158 153 151 147 149 150 156
160 185 244 291 22 146 203 209 160 124 135 129 129 125 129 132 135 130 121 118 123 124 128 141 144 147 153 168 171 153 149 151 155 160 167 165 157 156 155 154 155 161 161 173
182 205 230 269 151 180 132 118 101 102 132 130 124 136 149 157 150 142 135 131 126 124 118 116 129 137 144 157 143 138 140 148 153 155 157 156 161 162 163 163 166 174 176 189
102 260 285 42 63 56 75 82 82 96 124 134 134 146 157 166 157 152 143 137 130 126 124 123 126 135 145 141 135 132 138 145 148 150 151 151 159 163 170 176 178 182 187 192
118 279 18 17 21 28 46 52 61 54 75 111 134 152 157 155 154 154 147 144 142 142 143 147 138 133 142 144 139 136 142 149 153 151 156 156 157 169 179 187 186 186 193 189
216 222 188 236 293 14 32 35 75 74 62 71 122 137 140 148 154 151 149 144 142 140 144 148 142 138 150 155 148 145 151 157 157 152 153 159 152 134 81 176 183 192 200 195
212 219 188 198 284 345 274 249 191 140 137 120 99 129 137 142 150 151 150 147 153 157 154 150 144 144 150 155 149 150 160 163 158 161 168 175 177 176 184 261 248 228 223 214
194 139 108 212 276 290 269 225 173 120 134 140 138 125 124 129 141 147 153 156 149 145 146 148 147 155 166 157 151 152 153 163 161 168 174 177 181 187 186 184 200 254 258 231
282 207 191 191 302 306 269 152 112 114 128 127 128 124 129 137 146 150 148 139 132 133 141 146 153 174 171 160 159 156 155 162 171 169 173 176 183 188 190 188 195 213 229 257
262 73 105 100 60 302 279 137 140 147 137 121 119 132 138 138 135 133 146 145 143 153 159 160 170 185 174 169 168 170 171 175 178 178 177 182 191 195 196 195 199 208 213 209
190 172 143 127 283 279 260 198 161 144 134 128 135 138 124 117 117 123 138 145 148 164 172 169 183 187 176 172 172 180 181 188 189 183 189 193 198 204 202 197 201 210 216 204
192 188 180 178 174 145 109 149 139 138 137 133 129 132 136 140 148 159 160 140 127 134 174 177 174 171 170 171 175 178 180 188 196 200 202 201 203 207 203 200 204 210 215 204
119 135 133 116 136 142 140 130 128 124 127 126 124 126 134 140 147 154 147 133 143 179 229 200 167 167 185 192 182 180 183 198 203 203 201 200 201 197 200 205 208 210 204 193
92 94 90 71 81 114 113 109 116 122 126 124 117 114 119 141 147 139 130 148 206 209 202 184 174 184 197 194 172 178 180 190 197 201 203 204 205 209 209 210 210 207 202 194
105 105 83 78 96 103 103 105 103 109 115 113 119 130 143 156 149 139 138 194 284 234 157 150 169 196 200 194 176 181 186 197 205 209 211 211 209 212 212 212 212 210 206 200
101 98 92 105 99 92 89 93 101 107 112 112 116 122 125 123 111 104 194 214 231 203 173 182 199 194 188 177 181 184 194 199 205 207 212 213 211 216 221 219 221 221 215 207
89 118 125 113 116 116 98 94 101 114 126 133 139 145 161 183 168 160 254 268 217 171 166 200 189 184 182 184 193 199 206 207 207 206 205 209 214 218 220 220 220 218 216 212
93 93 108 107 104 103 102 107 116 119 128 124 144 157 163 163 304 266 224 221 190 172 190 201 187 192 192 218 220 213 216 215 211 212 213 215 216 219 218 214 217 217 211 211
77 69 69 87 96 110 132 120 99 94 99 94 47 250 206 195 211 236 230 213 196 190 212 209 191 192 208 235 228 218 220 225 219 217 214 215 219 217 213 209 210 208 203 201
62 79 83 122 143 143 122 112 117 151 150 183 279 265 255 260 207 201 210 210 202 198 204 214 208 206 219 229 224 219 215 224 229 221 208 198 200 198 194 199 211 210 205 201
44 48 53 49 40 96 123 126 144 203 216 204 252 273 247 225 177 175 154 157 162 213 235 225 201 199 206 203 197 196 188 187 183 173 167 168 163 170 189 185 186 195 193 178
Height
1483 1479 1477 1477 1476 1475 1482 1490 1498 1494 1491 1485 1480 1479 1481 1484 1488 1491 1494 1496 1500 1502 1504 1507 1510 1513 1516 1519 1522 1525 1527 1529 1530 1532 1534 1535 1536 1537 1538 1539 1539 1540 1540 1540
1483 1475 1474 1476 1473 1472 1474 1477 1481 1483 1484 1475 1475 1477 1480 1483 1486 1488 1491 1494 1497 1500 1502 1505 1507 1510 1513 1516 1519 1522 1524 1526 1528 1530 1531 1533 1534 1535 1536 1537 1537 1537 1538 1538
1493 1481 1478 1486 1474 1472 1473 1472 1474 1482 1478 1473 1476 1476 1478 1481 1484 1485 1488 1491 1494 1496 1499 1502 1504 1507 1510 1513 1516 1519 1521 1523 1525 1527 1529 1530 1532 1533 1533 1534 1535 1535 1536 1536
1495 1489 1498 1484 1466 1464 1468 1469 1468 1469 1470 1470 1472 1475 1477 1480 1482 1484 1487 1489 1492 1495 1497 1500 1503 1505 1508 1511 1514 1516 1518 1520 1522 1524 1526 1527 1529 1530 1531 1532 1532 1533 1533 1534
1499 1499 1492 1476 1466 1465 1470 1474 1468 1467 1469 1471 1473 1476 1480 1481 1482 1483 1485 1488 1491 1493 1496 1498 1500 1503 1506 1509 1511 1513 1515 1517 1519 1521 1523 1524 1526 1527 1528 1529 1530 1530 1531 1532
1495 1497 1498 1481 1465 1462 1466 1478 1469 1466 1468 1471 1473 1482 1483 1480 1481 1483 1485 1487 1489 1492 1494 1496 1499 1501 1504 1506 1508 1510 1512 1514 1516 1518 1520 1521 1523 1524 1526 1527 1528 1528 1529 1531
1492 1494 1487 1471 1463 1462 1480 1481 1469 1467 1467 1469 1472 1475 1478 1479 1481 1483 1485 1486 1488 1491 1493 1495 1497 1499 1501 1503 1505 1507 1509 1511 1514 1516 1517 1519 1520 1522 1523 1525 1526 1527 1528 1530
1490 1494 1489 1466 1464 1469 1472 1467 1468 1466 1467 1468 1470 1473 1475 1478 1480 1482 1484 1486 1487 1489 1491 1494 1495 1497 1498 1500 1503 1505 1507 1509 1511 1512 1515 1516 1518 1519 1521 1522 1523 1524 1526 1527
1478 1479 1469 1465 1465 1466 1466 1466 1467 1467 1468 1469 1471 1473 1475 1477 1479 1481 1483 1485 1487 1489 1491 1492 1494 1496 1497 1499 1501 1503 1505 1506 1508 1510 1512 1514 1515 1516 1518 1519 1520 1521 1522 1524
1471 1469 1466 1465 1464 1464 1465 1466 1466 1467 1467 1468 1470 1473 1475 1476 1478 1480 1482 1484 1486 1488 1489 1491 1493 1494 1496 1497 1499 1501 1502 1504 1506 1507 1509 1511 1513 1514 1515 1516 1517 1518 1519 1520
1470 1468 1466 1466 1465 1466 1465 1466 1466 1467 1467 1468 1469 1471 1473 1474 1476 1478 1480 1482 1484 1486 1488 1489 1491 1493 1494 1496 1497 1498 1500 1502 1503 1505 1507 1508 1510 1511 1512 1513 1514 1515 1516 1517
1471 1466 1467 1466 1466 1466 1466 1466 1467 1467 1468 1468 1468 1470 1472 1473 1475 1477 1479 1481 1483 1485 1486 1488 1489 1491 1492 1494 1495 1496 1497 1499 1500 1501 1503 1505 1506 1508 1509 1511 1511 1512 1513 1514
1463 1463 1463 1463 1464 1465 1466 1466 1466 1466 1467 1467 1469 1470 1471 1472 1474 1476 1478 1479 1481 1482 1484 1486 1487 1489 1490 1491 1492 1494 1495 1496 1497 1499 1500 1501 1503 1504 1505 1506 1508 1509 1509 1510
1461 1461 1461 1462 1463 1463 1464 1464 1465 1465 1465 1467 1469 1470 1470 1472 1473 1474 1475 1477 1479 1480 1482 1484 1485 1486 1488 1489 1490 1491 1493 1494 1495 1496 1498 1499 1500 1500 1501 1502 1503 1504 1505 1506
1459 1460 1460 1461 1461 1462 1462 1462 1462 1463 1464 1465 1467 1468 1469 1470 1472 1472 1474 1475 1477 1478 1480 1481 1482 1484 1485 1487 1488 1489 1490 1492 1493 1494 1495 1496 1497 1498 1498 1498 1499 1500 1501 1502
1457 1458 1458 1459 1459 1460 1459 1460 1460 1461 1462 1464 1466 1467 1468 1469 1471 1472 1473 1474 1475 1476 1477 1479 1480 1482 1483 1484 1485 1486 1487 1488 1490 1491 1492 1493 1494 1495 1495 1495 1496 1497 1497 1497
1456 1455 1457 1457 1458 1458 1458 1458 1459 1460 1461 1463 1464 1466 1467 1469 1470 1471 1472 1472 1473 1474 1476 1477 1478 1480 1481 1482 1483 1483 1484 1485 1487 1488 1489 1490 1490 1491 1492 1492 1492 1493 1493 1494
1454 1454 1455 1456 1456 1456 1457 1458 1458 1459 1460 1462 1464 1465 1466 1467 1469 1470 1470 1471 1471 1472 1473 1474 1475 1477 1478 1479 1480 1481 1482 1482 1484 1485 1486 1486 1487 1488 1488 1488 1489 1489 1490 1490
1452 1452 1453 1454 1454 1455 1457 1457 1457 1460 1461 1463 1463 1464 1465 1467 1468 1469 1469 1469 1469 1470 1471 1472 1473 1474 1475 1476 1477 1478 1478 1479 1480 1481 1482 1483 1483 1483 1484 1484 1485 1485 1485 1485
1451 1452 1453 1453 1454 1454 1455 1456 1458 1460 1461 1463 1463 1464 1465 1466 1467 1468 1468 1468 1468 1469 1469 1470 1471 1472 1473 1474 1474 1475 1475 1476 1477 1478 1478 1479 1479 1479 1480 1480 1481 1481 1481 1481
1452 1453 1453 1453 1454 1455 1456 1457 1458 1460 1461 1462 1463 1464 1465 1466 1467 1467 1467 1467 1467 1468 1468 1469 1469 1470 1471 1471 1472 1472 1472 1473 1474 1474 1475 1475 1476 1476 1476 1476 1477 1477 1477 1477
1451 1452 1453 1454 1454 1456 1457 1459 1460 1461 1462 1463 1464 1464 1465 1465 1465 1466 1466 1466 1467 1467 1467 1467 1467 1468 1468 1469 1469 1470 1470 1470 1470 1470 1471 1471 1472 1472 1472 1472 1473 1473 1473 1473
1451 1453 1454 1454 1456 1457 1459 1459 1460 1462 1462 1463 1464 1464 1464 1464 1464 1464 1465 1465 1465 1465 1465 1465 1466 1466 1466 1466 1467 1467 1467 1466 1466 1467 1467 1468 1468 1468 1468 1468 1468 1469 1469 1469
1453 1454 1454 1455 1456 1457 1458 1460 1461 1461 1462 1463 1463 1463 1464 1463 1463 1463 1463 1463 1463 1463 1463 1463 1464 1464 1464 1464 1464 1464 1464 1463 1463 1464 1464 1464 1464 1464 1464 1464 1464 1464 1464 1465
1453 1454 1455 1455 1456 1457 1458 1459 1460 1461 1462 1462 1462 1462 1463 1462 1462 1462 1462 1461 1462 1461 1461 1461 1462 1462 1462 1462 1461 1461 1461 1461 1461 1461 1461 1460 1461 1460 1460 1460 1460 1460 1460 1460
1454 1455 1455 1456 1457 1458 1459 1459 1459 1460 1460 1460 1461 1461 1461 1461 1461 1460 1460 1460 1460 1459 1459 1459 1459 1460 1460 1459 1459 1459 1459 1459 1458 1458 1458 1458 1458 1457 1457 1457 1456 1456 1456 1456
1454 1455 1455 1456 1457 1458 1458 1458 1458 1459 1459 1459 1459 1459 1459 1459 1459 1459 1459 1458 1458 1458 1457 1457 1457 1458 1458 1457 1457 1457 1457 1456 1456 1456 1456 1455 1455 1455 1455 1454 1454 1454 1453 1453